Time,TemperatureF,DewpointF,PressureIn,WindDirection,WindDirectionDegrees,WindSpeedMPH,WindSpeedGustMPH,Humidity,HourlyPrecipIn,Conditions,Clouds,dailyrainin,SoftwareType,DateUTC
2013-05-29 00:00:00,54.4,50.9,30.04,SSW,203,0.0,0.0,88,0.00,,,0.00,WUHU216HW,2013-05-29 05:00:00,
2013-05-29 00:05:00,54.4,50.9,30.04,SSW,203,0.0,0.0,88,0.00,,,0.00,WUHU216HW,2013-05-29 05:05:00,
2013-05-29 00:30:00,54.4,50.9,30.06,South,180,1.8,1.8,88,0.00,,,0.00,WUHU216HW,2013-05-29 05:30:00,
2013-05-29 00:35:00,54.4,50.9,30.06,South,180,1.8,1.8,88,0.00,,,0.00,WUHU216HW,2013-05-29 05:35:00,
2013-05-29 01:00:00,54.4,50.9,30.06,NNW,338,0.0,0.0,88,0.00,,,0.00,WUHU216HW,2013-05-29 06:00:00,
2013-05-29 01:05:00,54.4,50.9,30.06,NNW,338,0.0,0.0,88,0.00,,,0.00,WUHU216HW,2013-05-29 06:05:00,
2013-05-29 01:30:00,54.4,51.2,30.05,South,180,0.0,0.0,89,0.00,,,0.00,WUHU216HW,2013-05-29 06:30:00,
2013-05-29 01:35:00,54.4,51.2,30.05,South,180,0.0,0.0,89,0.00,,,0.00,WUHU216HW,2013-05-29 06:35:00,
2013-05-29 02:00:00,54.4,51.2,30.06,WNW,293,0.0,0.0,89,0.00,,,0.00,WUHU216HW,2013-05-29 07:00:00,
2013-05-29 02:05:00,54.4,51.2,30.06,WNW,293,0.0,0.0,89,0.00,,,0.00,WUHU216HW,2013-05-29 07:05:00,
2013-05-29 02:30:00,54.4,51.2,30.06,SSW,203,0.0,0.0,89,0.00,,,0.00,WUHU216HW,2013-05-29 07:30:00,
2013-05-29 02:35:00,54.4,51.2,30.06,SSW,203,0.0,0.0,89,0.00,,,0.00,WUHU216HW,2013-05-29 07:35:00,
2013-05-29 03:00:00,54.4,51.2,30.06,SSW,203,0.0,0.0,89,0.00,,,0.00,WUHU216HW,2013-05-29 08:00:00,
2013-05-29 03:05:00,54.4,51.2,30.06,SSW,203,0.0,0.0,89,0.00,,,0.00,WUHU216HW,2013-05-29 08:05:00,
2013-05-29 03:30:00,54.5,51.3,30.05,WSW,248,0.7,0.7,89,0.00,,,0.00,WUHU216HW,2013-05-29 08:30:00,
2013-05-29 03:35:00,54.5,51.3,30.05,WSW,248,0.7,0.7,89,0.00,,,0.00,WUHU216HW,2013-05-29 08:35:00,
2013-05-29 04:00:00,54.5,51.3,30.06,SSE,158,0.0,0.0,89,0.00,,,0.00,WUHU216HW,2013-05-29 09:00:00,
2013-05-29 04:05:00,54.5,51.3,30.06,SSE,158,0.0,0.0,89,0.00,,,0.00,WUHU216HW,2013-05-29 09:05:00,
2013-05-29 04:30:00,54.5,51.3,30.06,WSW,248,0.0,0.0,89,0.00,,,0.00,WUHU216HW,2013-05-29 09:30:00,
2013-05-29 04:35:00,54.5,51.3,30.06,WSW,248,0.0,0.0,89,0.00,,,0.00,WUHU216HW,2013-05-29 09:35:00,
2013-05-29 05:00:00,54.5,51.3,30.07,SSW,203,0.4,0.4,89,0.00,,,0.00,WUHU216HW,2013-05-29 10:00:00,
2013-05-29 05:05:00,54.5,51.3,30.07,SSW,203,0.4,0.4,89,0.00,,,0.00,WUHU216HW,2013-05-29 10:05:00,
2013-05-29 05:30:00,54.7,51.5,30.07,West,270,0.2,0.2,89,0.00,,,0.00,WUHU216HW,2013-05-29 10:30:00,
2013-05-29 05:35:00,54.7,51.5,30.07,West,270,0.2,0.2,89,0.00,,,0.00,WUHU216HW,2013-05-29 10:35:00,
2013-05-29 06:00:00,54.7,51.8,30.08,South,180,0.0,0.0,90,0.00,,,0.00,WUHU216HW,2013-05-29 11:00:00,
2013-05-29 06:05:00,54.7,51.8,30.08,South,180,0.0,0.0,90,0.00,,,0.00,WUHU216HW,2013-05-29 11:05:00,
2013-05-29 06:10:00,54.7,51.8,30.08,South,180,0.0,0.0,90,0.00,,,0.00,WUHU216HW,2013-05-29 11:10:00,
2013-05-29 06:30:00,55.3,52.4,30.09,SE,135,0.0,0.0,90,0.00,,,0.00,WUHU216HW,2013-05-29 11:30:00,
2013-05-29 06:35:00,55.3,52.4,30.09,SE,135,0.0,0.0,90,0.00,,,0.00,WUHU216HW,2013-05-29 11:35:00,
2013-05-29 07:00:00,55.8,52.6,30.11,SE,135,1.8,1.8,89,0.00,,,0.00,WUHU216HW,2013-05-29 12:00:00,
2013-05-29 07:05:00,55.8,52.6,30.11,SSW,203,2.0,2.0,89,0.00,,,0.00,WUHU216HW,2013-05-29 12:05:00,
2013-05-29 07:10:00,55.8,52.6,30.11,SSW,203,2.0,2.0,89,0.00,,,0.00,WUHU216HW,2013-05-29 12:10:00,
2013-05-29 07:30:00,56.3,53.1,30.10,WSW,248,0.0,0.0,89,0.00,,,0.00,WUHU216HW,2013-05-29 12:30:00,
2013-05-29 07:35:00,56.3,53.1,30.10,WSW,248,0.0,0.0,89,0.00,,,0.00,WUHU216HW,2013-05-29 12:35:00,
2013-05-29 08:00:00,56.5,53.3,30.10,WNW,293,0.0,0.0,89,0.00,,,0.00,WUHU216HW,2013-05-29 13:00:00,
2013-05-29 08:05:00,56.5,53.3,30.10,WNW,293,0.0,0.0,89,0.00,,,0.00,WUHU216HW,2013-05-29 13:05:00,
2013-05-29 08:10:00,56.5,53.3,30.10,WNW,293,0.0,0.0,89,0.00,,,0.00,WUHU216HW,2013-05-29 13:10:00,
2013-05-29 08:30:00,56.7,53.5,30.11,SE,135,0.4,0.4,89,0.00,,,0.00,WUHU216HW,2013-05-29 13:30:00,
2013-05-29 08:35:00,56.7,53.5,30.11,SE,135,0.4,0.4,89,0.00,,,0.00,WUHU216HW,2013-05-29 13:35:00,
2013-05-29 09:00:00,57.1,53.6,30.12,SSW,203,0.0,0.0,88,0.00,,,0.00,WUHU216HW,2013-05-29 14:00:00,
2013-05-29 09:05:00,56.9,53.4,30.12,SSW,203,0.0,0.0,88,0.00,,,0.00,WUHU216HW,2013-05-29 14:05:00,
2013-05-29 09:10:00,56.9,53.4,30.12,SSW,203,0.0,0.0,88,0.00,,,0.00,WUHU216HW,2013-05-29 14:10:00,
2013-05-29 09:30:00,57.2,53.7,30.13,SE,135,0.4,0.4,88,0.00,,,0.00,WUHU216HW,2013-05-29 14:30:00,
2013-05-29 09:35:00,57.2,53.7,30.13,SE,135,0.4,0.4,88,0.00,,,0.00,WUHU216HW,2013-05-29 14:35:00,
2013-05-29 10:00:00,58.0,54.5,30.13,West,270,0.7,0.7,88,0.00,,,0.00,WUHU216HW,2013-05-29 15:00:00,
2013-05-29 10:05:00,58.0,54.5,30.13,SW,225,0.7,0.7,88,0.00,,,0.00,WUHU216HW,2013-05-29 15:05:00,
2013-05-29 10:10:00,58.0,54.5,30.13,SW,225,0.7,0.7,88,0.00,,,0.00,WUHU216HW,2013-05-29 15:10:00,
2013-05-29 10:30:00,58.7,54.8,30.13,SW,225,0.7,0.7,87,0.00,,,0.00,WUHU216HW,2013-05-29 15:30:00,
2013-05-29 10:35:00,58.7,54.8,30.13,SW,225,0.7,0.7,87,0.00,,,0.00,WUHU216HW,2013-05-29 15:35:00,
2013-05-29 10:40:00,58.7,54.8,30.13,SW,225,0.7,0.7,87,0.00,,,0.00,WUHU216HW,2013-05-29 15:40:00,
2013-05-29 11:00:00,59.6,55.5,30.14,West,270,0.2,0.2,86,0.00,,,0.00,WUHU216HW,2013-05-29 16:00:00,
2013-05-29 11:05:00,59.6,55.5,30.14,West,270,0.2,0.2,86,0.00,,,0.00,WUHU216HW,2013-05-29 16:05:00,
2013-05-29 11:30:00,59.9,55.4,30.14,SE,135,2.5,2.5,85,0.00,,,0.00,WUHU216HW,2013-05-29 16:30:00,
2013-05-29 11:35:00,59.9,55.4,30.14,SE,135,2.5,2.5,85,0.00,,,0.00,WUHU216HW,2013-05-29 16:35:00,
2013-05-29 12:00:00,61.4,56.5,30.14,SE,135,1.1,1.1,84,0.00,,,0.00,WUHU216HW,2013-05-29 17:00:00,
2013-05-29 12:05:00,61.4,56.5,30.14,SE,135,1.1,1.1,84,0.00,,,0.00,WUHU216HW,2013-05-29 17:05:00,
2013-05-29 12:30:00,65.9,59.6,30.13,South,180,1.8,1.8,80,0.00,,,0.00,WUHU216HW,2013-05-29 17:30:00,
2013-05-29 12:35:00,65.9,59.6,30.13,South,180,1.8,1.8,80,0.00,,,0.00,WUHU216HW,2013-05-29 17:35:00,
2013-05-29 13:00:00,68.2,59.2,30.13,SE,135,3.8,3.8,73,0.00,,,0.00,WUHU216HW,2013-05-29 18:00:00,
2013-05-29 13:05:00,68.2,59.2,30.13,SE,135,3.8,3.8,73,0.00,,,0.00,WUHU216HW,2013-05-29 18:05:00,
2013-05-29 13:30:00,70.0,59.8,30.12,NE,45,1.1,1.1,70,0.00,,,0.00,WUHU216HW,2013-05-29 18:30:00,
2013-05-29 13:35:00,70.0,59.8,30.12,NE,45,1.1,1.1,70,0.00,,,0.00,WUHU216HW,2013-05-29 18:35:00,
2013-05-29 14:00:00,73.1,61.0,30.12,ESE,113,1.8,1.8,66,0.00,,,0.00,WUHU216HW,2013-05-29 19:00:00,
2013-05-29 14:05:00,73.1,61.0,30.12,ESE,113,1.8,1.8,66,0.00,,,0.00,WUHU216HW,2013-05-29 19:05:00,
2013-05-29 14:30:00,76.0,62.5,30.12,ENE,68,1.6,1.6,63,0.00,,,0.00,WUHU216HW,2013-05-29 19:30:00,
2013-05-29 14:35:00,76.0,62.5,30.12,ENE,68,1.6,1.6,63,0.00,,,0.00,WUHU216HW,2013-05-29 19:35:00,
2013-05-29 15:00:00,76.0,61.6,30.11,SSE,158,3.1,3.1,61,0.00,,,0.00,WUHU216HW,2013-05-29 20:00:00,
2013-05-29 15:05:00,76.0,61.6,30.11,SSE,158,3.1,3.1,61,0.00,,,0.00,WUHU216HW,2013-05-29 20:05:00,
2013-05-29 15:30:00,77.4,62.9,30.09,West,270,0.9,0.9,61,0.00,,,0.00,WUHU216HW,2013-05-29 20:30:00,
2013-05-29 15:35:00,77.4,62.9,30.09,West,270,0.9,0.9,61,0.00,,,0.00,WUHU216HW,2013-05-29 20:35:00,
2013-05-29 15:59:00,78.1,63.2,30.09,South,180,1.8,1.8,60,0.00,,,0.00,WUHU216HW,2013-05-29 20:59:00,
2013-05-29 16:04:00,78.1,63.2,30.09,South,180,1.8,1.8,60,0.00,,,0.00,WUHU216HW,2013-05-29 21:04:00,
2013-05-29 16:30:00,77.0,63.0,30.09,ESE,113,4.5,4.5,62,0.00,,,0.00,WUHU216HW,2013-05-29 21:30:00,
2013-05-29 16:35:00,77.0,63.0,30.09,ESE,113,4.5,4.5,62,0.00,,,0.00,WUHU216HW,2013-05-29 21:35:00,
2013-05-29 16:59:00,77.4,63.4,30.08,SSE,158,2.0,2.0,62,0.00,,,0.00,WUHU216HW,2013-05-29 21:59:00,
2013-05-29 17:04:00,77.4,63.4,30.08,SSE,158,2.0,2.0,62,0.00,,,0.00,WUHU216HW,2013-05-29 22:04:00,
2013-05-29 17:09:00,77.4,63.4,30.08,SSE,158,2.0,2.0,62,0.00,,,0.00,WUHU216HW,2013-05-29 22:09:00,
2013-05-29 17:30:00,76.7,63.1,30.08,SE,135,1.1,1.1,63,0.00,,,0.00,WUHU216HW,2013-05-29 22:30:00,
2013-05-29 17:35:00,76.7,63.1,30.08,SE,135,1.1,1.1,63,0.00,,,0.00,WUHU216HW,2013-05-29 22:35:00,
2013-05-29 17:59:00,74.7,63.0,30.07,SE,135,4.7,4.7,67,0.00,,,0.00,WUHU216HW,2013-05-29 22:59:00,
2013-05-29 18:04:00,74.5,62.8,30.07,SSE,158,2.5,4.7,67,0.00,,,0.00,WUHU216HW,2013-05-29 23:04:00,
2013-05-29 18:09:00,74.5,62.8,30.07,SSE,158,2.5,2.5,67,0.00,,,0.00,WUHU216HW,2013-05-29 23:09:00,
2013-05-29 18:30:00,73.6,62.9,30.07,SE,135,1.1,1.1,69,0.00,,,0.00,WUHU216HW,2013-05-29 23:30:00,
2013-05-29 18:35:00,73.6,62.9,30.07,SE,135,1.1,1.1,69,0.00,,,0.00,WUHU216HW,2013-05-29 23:35:00,
2013-05-29 18:59:00,72.5,62.6,30.07,SE,135,0.0,0.0,71,0.00,,,0.00,WUHU216HW,2013-05-29 23:59:00,
2013-05-29 19:04:00,72.7,62.8,30.07,SE,135,0.0,0.0,71,0.00,,,0.00,WUHU216HW,2013-05-30 00:04:00,
2013-05-29 19:09:00,72.7,62.8,30.07,SE,135,0.0,0.0,71,0.00,,,0.00,WUHU216HW,2013-05-30 00:09:00,
2013-05-29 19:30:00,71.8,62.3,30.08,SE,135,0.0,0.0,72,0.00,,,0.00,WUHU216HW,2013-05-30 00:30:00,
2013-05-29 19:35:00,71.8,62.3,30.08,SE,135,0.0,0.0,72,0.00,,,0.00,WUHU216HW,2013-05-30 00:35:00,
2013-05-29 19:59:00,68.8,62.0,30.08,NW,315,1.6,1.6,79,0.02,,,0.00,WUHU216HW,2013-05-30 00:59:00,
2013-05-29 20:05:00,68.8,62.0,30.08,NW,315,1.3,1.6,79,0.02,,,0.02,WUHU216HW,2013-05-30 01:05:00,
2013-05-29 20:10:00,68.8,62.0,30.08,NW,315,1.3,1.3,79,0.02,,,0.02,WUHU216HW,2013-05-30 01:10:00,
2013-05-29 20:30:00,65.9,60.2,30.11,West,270,0.7,0.7,82,0.37,,,0.02,WUHU216HW,2013-05-30 01:30:00,
2013-05-29 20:35:00,65.9,60.2,30.11,West,270,0.7,0.7,82,0.37,,,0.02,WUHU216HW,2013-05-30 01:35:00,
2013-05-29 20:59:00,65.3,60.0,30.08,NW,315,0.0,0.0,83,0.39,,,0.37,WUHU216HW,2013-05-30 01:59:00,
2013-05-29 21:04:00,65.3,60.0,30.08,NW,315,0.0,0.0,83,0.39,,,0.37,WUHU216HW,2013-05-30 02:04:00,
2013-05-29 21:30:00,64.8,60.2,30.09,SE,135,0.4,0.4,85,0.07,,,0.41,WUHU216HW,2013-05-30 02:30:00,
2013-05-29 21:35:00,64.8,60.2,30.09,SE,135,0.4,0.4,85,0.07,,,0.41,WUHU216HW,2013-05-30 02:35:00,
2013-05-29 21:59:00,65.0,61.0,30.11,SE,135,2.5,2.5,87,0.10,,,0.44,WUHU216HW,2013-05-30 02:59:00,
2013-05-29 22:04:00,65.0,61.0,30.11,SE,135,2.5,2.5,87,0.10,,,0.44,WUHU216HW,2013-05-30 03:04:00,
2013-05-29 22:30:00,64.1,60.2,30.12,SE,135,2.7,2.7,87,0.14,,,0.51,WUHU216HW,2013-05-30 03:30:00,
2013-05-29 22:35:00,64.1,60.2,30.12,SE,135,2.7,2.7,87,0.14,,,0.51,WUHU216HW,2013-05-30 03:35:00,
2013-05-29 22:59:00,63.2,59.0,30.09,SSW,203,0.0,0.0,86,0.13,,,0.58,WUHU216HW,2013-05-30 03:59:00,
2013-05-29 23:01:00,63.2,59.0,30.09,SSW,203,0.0,0.0,86,0.13,,,0.58,WUHU216HW,2013-05-30 04:01:00,
2013-05-29 23:06:00,63.2,59.0,30.09,SSW,203,0.0,0.0,86,0.13,,,0.58,WUHU216HW,2013-05-30 04:06:00,
2013-05-29 23:30:00,62.8,58.6,30.09,SE,135,0.0,0.0,86,0.06,,,0.64,WUHU216HW,2013-05-30 04:30:00,
2013-05-29 23:35:00,62.8,58.6,30.09,SE,135,0.0,0.0,86,0.06,,,0.64,WUHU216HW,2013-05-30 04:35:00,
2013-05-29 23:59:00,62.6,58.8,30.09,SE,135,0.9,0.9,87,0.01,,,0.00,WUHU216HW,2013-05-30 04:59:00,